Location: Northam
(31.6525°S, 116.6655°E)
Time: 11:34:12
(UTC+08:00)

X-37B - Pass Details

Date: 24 January 2021
Orbit: 383 x 391 km, 45.0° (Epoch: 27 February)

Event Time Altitude Azimuth Distance (km) Brightness Sun altitude
Exits shadow 04:01:19 58° 300° (WNW) 459 0.5 -17.4°
Maximum altitude 04:01:52 86° 215° (SW) 396 0.5 -17.3°
Drops below altitude 10° 04:05:06 10° 126° (SE) 1,429 4.8 -16.8°
Sets 04:07:11 0° 125° (SE) 2,288 6.3 -16.4°
